| time (UTC) | temp C | wind direction | speed KPH | gust KPH | rain 1hr cm | rain 24hr cm | rain mn cm | humidity % | barometer mb |
| 20260904144533 | 16 | 217 | 0.0 | 0.0 | 0.00 | 0.00 | 0.00 | 42 | 1003.5 |
| 20260904143023 | 16 | 123 | 0.0 | 0.0 | 0.00 | 0.00 | 0.00 | 46 | 1003.5 |
| 20260904141548 | 15 | 123 | 0.0 | 0.0 | 0.00 | 0.00 | 0.00 | 48 | 1003.5 |
| 20260904140056 | 13 | 148 | 0.0 | 0.0 | 0.00 | 0.00 | 0.00 | 52 | 1003.3 |
| 20260904134625 | 12 | 148 | 0.0 | 0.0 | 0.00 | 0.00 | 0.00 | 54 | 1003.3 |
| 20260904133005 | 12 | 148 | 0.0 | 0.0 | 0.00 | 0.00 | 0.00 | 54 | 1003.0 |
| 20260904131520 | 11 | 148 | 0.0 | 0.0 | 0.00 | 0.00 | 0.00 | 54 | 1002.8 |
| 20260904130032 | 11 | 213 | 0.0 | 0.0 | 0.00 | 0.00 | 0.00 | 52 | 1002.7 |
| 20260904124529 | 11 | 213 | 0.0 | 0.0 | 0.00 | 0.00 | 0.00 | 52 | 1002.5 |
| 20260904123052 | 12 | 214 | 0.0 | 0.0 | 0.00 | 0.00 | 0.00 | 51 | 1002.5 |
| 20260904121600 | 11 | 92 | 0.0 | 0.0 | 0.00 | 0.00 | 0.00 | 51 | 1002.4 |
| 20260904120110 | 11 | 92 | 0.0 | 0.0 | 0.00 | 0.00 | 0.00 | 53 | 1002.3 |
| 20260904114504 | 11 | 92 | 0.0 | 0.0 | 0.00 | 0.00 | 0.00 | 51 | 1002.2 |
| 20260904113113 | 11 | 92 | 0.0 | 0.0 | 0.00 | 0.00 | 0.00 | 50 | 1002.2 |
| 20260904111608 | 11 | 92 | 0.0 | 0.0 | 0.00 | 0.00 | 0.00 | 50 | 1002.3 |
| 20260904110059 | 11 | 92 | 0.0 | 0.0 | 0.00 | 0.00 | 0.00 | 47 | 1002.2 |
| 20260904104558 | 11 | 92 | 0.0 | 0.0 | 0.00 | 0.00 | 0.00 | 47 | 1002.3 |
| 20260904103056 | 11 | 92 | 0.0 | 0.0 | 0.00 | 0.00 | 0.00 | 47 | 1002.1 |
| 20260904101602 | 11 | 92 | 0.0 | 0.0 | 0.00 | 0.00 | 0.00 | 46 | 1002.1 |
| 20260904100054 | 11 | 77 | 0.0 | 0.0 | 0.00 | 0.00 | 0.00 | 46 | 1001.9 |
| 20260904094546 | 11 | 97 | 0.0 | 0.0 | 0.00 | 0.00 | 0.00 | 47 | 1001.8 |
| 20260904093106 | 11 | 90 | 0.0 | 0.0 | 0.00 | 0.00 | 0.00 | 46 | 1001.6 |
| 20260904091600 | 11 | 90 | 0.0 | 0.0 | 0.00 | 0.00 | 0.00 | 46 | 1001.6 |
| 20260904090105 | 11 | 90 | 0.0 | 0.0 | 0.00 | 0.00 | 0.00 | 46 | 1001.6 |
| 20260904084510 | 11 | 81 | 0.0 | 0.0 | 0.00 | 0.00 | 0.00 | 47 | 1001.6 |
| 20260904083019 | 11 | 81 | 0.0 | 0.0 | 0.00 | 0.00 | 0.00 | 48 | 1001.4 |
| 20260904081515 | 11 | 121 | 0.0 | 0.0 | 0.00 | 0.00 | 0.00 | 48 | 1001.5 |
| 20260904080134 | 11 | 121 | 0.0 | 0.0 | 0.00 | 0.00 | 0.00 | 47 | 1001.7 |
| 20260904074504 | 11 | 121 | 0.0 | 0.0 | 0.00 | 0.00 | 0.00 | 48 | 1001.6 |
| 20260904073135 | 12 | 121 | 0.0 | 0.0 | 0.00 | 0.00 | 0.00 | 46 | 1001.6 |
| 20260904071602 | 13 | 121 | 0.0 | 0.0 | 0.00 | 0.00 | 0.00 | 42 | 1001.5 |
| 20260904070131 | 13 | 121 | 0.0 | 0.0 | 0.00 | 0.00 | 0.00 | 41 | 1001.4 |
| 20260904064507 | 14 | 121 | 0.0 | 0.0 | 0.00 | 0.00 | 0.00 | 39 | 1001.4 |
| 20260904063022 | 13 | 121 | 0.0 | 0.0 | 0.00 | 0.00 | 0.00 | 41 | 1001.2 |
| 20260904061522 | 13 | 121 | 0.0 | 0.0 | 0.00 | 0.00 | 0.00 | 42 | 1001.2 |
| 20260904060028 | 13 | 173 | 0.0 | 0.0 | 0.00 | 0.00 | 0.00 | 44 | 1001.2 |
| 20260904054537 | 14 | 216 | 0.0 | 0.0 | 0.00 | 0.00 | 0.00 | 43 | 1001.2 |
| 20260904053043 | 15 | 216 | 0.0 | 0.0 | 0.00 | 0.00 | 0.00 | 44 | 1001.2 |
| 20260904051527 | 15 | 216 | 0.0 | 0.0 | 0.00 | 0.00 | 0.00 | 44 | 1001.3 |
| 20260904050047 | 16 | 261 | 0.0 | 0.0 | 0.00 | 0.00 | 0.00 | 40 | 1001.4 |
| 20260904044555 | 17 | 146 | 0.0 | 1.6 | 0.00 | 0.00 | 0.00 | 41 | 1001.3 |
| 20260904043109 | 17 | 150 | 0.0 | 12.9 | 0.00 | 0.00 | 0.00 | 39 | 1001.5 |
| 20260904041615 | 16 | 131 | 0.0 | 3.2 | 0.00 | 0.00 | 0.00 | 37 | 1001.6 |
| 20260904040014 | 17 | 137 | 0.0 | 11.3 | 0.00 | 0.00 | 0.00 | 33 | 1001.8 |
| 20260904034538 | 17 | 126 | 0.0 | 22.5 | 0.00 | 0.00 | 0.00 | 32 | 1001.8 |
| 20260904033043 | 17 | 123 | 0.0 | 19.3 | 0.00 | 0.00 | 0.00 | 32 | 1001.7 |
| 20260904031544 | 17 | 129 | 0.0 | 14.5 | 0.00 | 0.00 | 0.00 | 31 | 1001.6 |
| 20260904030002 | 18 | 150 | 0.0 | 1.6 | 0.00 | 0.00 | 0.00 | 30 | 1001.5 |
| 20260904024517 | 18 | 136 | 0.0 | 16.1 | 0.00 | 0.00 | 0.00 | 30 | 1001.4 |
| 20260904023059 | 18 | 137 | 0.0 | 19.3 | 0.00 | 0.00 | 0.00 | 30 | 1001.3 |
| 20260904021610 | 17 | 150 | 0.0 | 14.5 | 0.00 | 0.00 | 0.00 | 31 | 1001.0 |
| 20260904020120 | 18 | 134 | 0.0 | 1.6 | 0.00 | 0.00 | 0.00 | 30 | 1001.0 |
| 20260904014631 | 18 | 140 | 0.0 | 0.0 | 0.00 | 0.00 | 0.00 | 28 | 1000.8 |
| 20260904013134 | 18 | 132 | 0.0 | 0.0 | 0.00 | 0.00 | 0.00 | 27 | 1000.8 |
| 20260904011612 | 19 | 144 | 0.0 | 0.0 | 0.00 | 0.00 | 0.00 | 28 | 1000.8 |
| 20260904010138 | 20 | 144 | 0.0 | 11.3 | 0.00 | 0.00 | 0.00 | 26 | 1000.8 |
| 20260904004610 | 20 | 149 | 0.0 | 1.6 | 0.00 | 0.00 | 0.00 | 25 | 1000.6 |
| 20260904003108 | 21 | 128 | 0.0 | 17.7 | 0.00 | 0.00 | 0.00 | 25 | 1000.7 |
| 20260904001608 | 21 | 173 | 0.0 | 12.9 | 0.00 | 0.00 | 0.00 | 25 | 1000.8 |
| 20260904000104 | 21 | 177 | 1.6 | 14.5 | 0.00 | 0.00 | 0.00 | 24 | 1000.8 |
| 20260903234552 | 21 | 156 | 0.0 | 0.0 | 0.00 | 0.00 | 0.00 | 24 | 1000.9 |
| 20260903233054 | 22 | 196 | 0.0 | 0.0 | 0.00 | 0.00 | 0.00 | 24 | 1000.9 |
| 20260903231558 | 22 | 165 | 1.6 | 12.9 | 0.00 | 0.00 | 0.00 | 22 | 1000.8 |
| 20260903230114 | 22 | 268 | 0.0 | 11.3 | 0.00 | 0.00 | 0.00 | 22 | 1000.9 |
| 20260903224612 | 22 | 169 | 0.0 | 0.0 | 0.00 | 0.00 | 0.00 | 23 | 1000.9 |
| 20260903223049 | 22 | 250 | 0.0 | 9.7 | 0.00 | 0.00 | 0.00 | 26 | 1001.1 |
| 20260903221541 | 22 | 125 | 0.0 | 9.7 | 0.00 | 0.00 | 0.00 | 26 | 1001.2 |
| 20260903220030 | 22 | 138 | 0.0 | 3.2 | 0.00 | 0.00 | 0.00 | 26 | 1001.2 |
| 20260903214603 | 22 | 248 | 0.0 | 1.6 | 0.00 | 0.00 | 0.00 | 25 | 1001.1 |
| 20260903213042 | 23 | 184 | 0.0 | 1.6 | 0.00 | 0.00 | 0.00 | 24 | 1001.3 |
| 20260903211519 | 23 | 211 | 0.0 | 1.6 | 0.00 | 0.00 | 0.00 | 26 | 1001.4 |
| 20260903210123 | 22 | 228 | 0.0 | 3.2 | 0.00 | 0.00 | 0.00 | 25 | 1001.5 |
| 20260903204550 | 22 | 245 | 0.0 | 0.0 | 0.00 | 0.00 | 0.00 | 27 | 1001.6 |
| 20260903203106 | 22 | 194 | 0.0 | 11.3 | 0.00 | 0.00 | 0.00 | 28 | 1001.7 |
| 20260903201516 | 22 | 162 | 0.0 | 1.6 | 0.00 | 0.00 | 0.00 | 24 | 1002.0 |
| 20260903200010 | 22 | 231 | 0.0 | 14.5 | 0.00 | 0.00 | 0.00 | 23 | 1002.0 |
| 20260903194502 | 22 | 331 | 0.0 | 12.9 | 0.00 | 0.00 | 0.00 | 24 | 1002.1 |
| 20260903193145 | 22 | 308 | 0.0 | 0.0 | 0.00 | 0.00 | 0.00 | 22 | 1002.2 |
| 20260903191519 | 21 | 202 | 0.0 | 3.2 | 0.00 | 0.00 | 0.00 | 24 | 1002.6 |
| 20260903190036 | 21 | 274 | 1.6 | 24.1 | 0.00 | 0.00 | 0.00 | 22 | 1002.7 |
| 20260903184510 | 21 | 305 | 0.0 | 17.7 | 0.00 | 0.00 | 0.00 | 19 | 1002.8 |
| 20260903183111 | 21 | 261 | 0.0 | 4.8 | 0.00 | 0.00 | 0.00 | 24 | 1003.0 |
| 20260903181606 | 21 | 212 | 0.0 | 3.2 | 0.00 | 0.00 | 0.00 | 25 | 1003.3 |
| 20260903180055 | 20 | 247 | 0.0 | 9.7 | 0.00 | 0.00 | 0.00 | 27 | 1003.6 |
| 20260903174554 | 20 | 275 | 0.0 | 12.9 | 0.00 | 0.00 | 0.00 | 29 | 1003.6 |
| 20260903173042 | 20 | 265 | 0.0 | 17.7 | 0.00 | 0.00 | 0.00 | 30 | 1003.6 |
| 20260903171521 | 20 | 243 | 0.0 | 17.7 | 0.00 | 0.00 | 0.00 | 31 | 1003.6 |
| 20260903170016 | 19 | 273 | 0.0 | 0.0 | 0.00 | 0.00 | 0.00 | 34 | 1003.6 |
| 20260903164503 | 18 | 248 | 0.0 | 12.9 | 0.00 | 0.00 | 0.00 | 37 | 1003.6 |
| 20260903163103 | 17 | 252 | 0.0 | 19.3 | 0.00 | 0.00 | 0.00 | 39 | 1003.5 |
| 20260903161603 | 17 | 230 | 0.0 | 4.8 | 0.00 | 0.00 | 0.00 | 38 | 1003.1 |
| 20260903160131 | 17 | 282 | 0.0 | 0.0 | 0.00 | 0.00 | 0.00 | 39 | 1003.1 |
| 20260903154512 | 17 | 171 | 0.0 | 6.4 | 0.00 | 0.00 | 0.00 | 43 | 1003.1 |
| 20260903153014 | 17 | 143 | 0.0 | 1.6 | 0.00 | 0.00 | 0.00 | 43 | 1003.4 |
| 20260903151521 | 16 | 113 | 0.0 | 0.0 | 0.00 | 0.00 | 0.00 | 44 | 1003.4 |
| 20260903150041 | 16 | 170 | 0.0 | 0.0 | 0.00 | 0.00 | 0.00 | 46 | 1003.6 |